TimeHST,TemperatureF,Dew PointF,Humidity,Sea Level PressureIn,VisibilityMPH,Wind Direction,Wind SpeedMPH,Gust SpeedMPH,PrecipitationIn,Events,Conditions,WindDirDegrees,DateUTC
12:53 AM,72.0,64.0,76,30.00,10.0,East,4.6,-,N/A,,Overcast,80,2013-03-24 10:53:00
1:53 AM,72.0,64.0,76,29.99,10.0,North,5.8,-,N/A,,Overcast,360,2013-03-24 11:53:00
2:53 AM,72.0,64.9,78,29.98,10.0,Calm,Calm,-,N/A,,Overcast,0,2013-03-24 12:53:00
3:22 AM,71.6,64.4,78,29.98,10.0,East,12.7,-,N/A,,Overcast,80,2013-03-24 13:22:00
3:53 AM,71.1,64.0,78,29.97,10.0,NNE,4.6,-,N/A,,Overcast,20,2013-03-24 13:53:00
4:53 AM,71.1,64.9,81,29.96,10.0,NNE,5.8,-,N/A,,Mostly Cloudy,30,2013-03-24 14:53:00
5:15 AM,71.6,64.4,78,29.96,10.0,NNE,3.5,-,N/A,,Mostly Cloudy,20,2013-03-24 15:15:00
5:34 AM,71.6,64.4,78,29.97,10.0,NNE,6.9,-,N/A,,Mostly Cloudy,20,2013-03-24 15:34:00
5:53 AM,72.0,64.0,76,29.97,10.0,NNW,3.5,-,N/A,,Overcast,340,2013-03-24 15:53:00
6:53 AM,72.0,64.0,76,29.99,10.0,North,3.5,-,N/A,,Overcast,360,2013-03-24 16:53:00
7:53 AM,73.0,64.9,76,30.02,10.0,ENE,4.6,-,N/A,,Overcast,70,2013-03-24 17:53:00
8:16 AM,71.6,66.2,83,30.02,7.0,Calm,Calm,-,0.00,Rain,Light Rain,0,2013-03-24 18:16:00
8:53 AM,71.1,66.9,87,30.04,10.0,NNW,5.8,-,0.01,,Overcast,330,2013-03-24 18:53:00
9:53 AM,70.0,69.1,97,30.06,6.0,NNW,6.9,-,0.05,Rain,Rain,340,2013-03-24 19:53:00
10:53 AM,70.0,-9999,N/A,30.05,10.0,NNE,5.8,-,0.10,Rain,Light Rain,20,2013-03-24 20:53:00
11:53 AM,71.1,-9999,N/A,30.05,8.0,Calm,Calm,-,0.02,Rain,Light Rain,0,2013-03-24 21:53:00
12:53 PM,71.1,71.1,100,30.03,9.0,Calm,Calm,-,0.07,Rain,Light Rain,0,2013-03-24 22:53:00
1:53 PM,72.0,72.0,100,29.97,10.0,NNW,8.1,-,0.01,Rain,Light Rain,340,2013-03-24 23:53:00
2:37 PM,73.4,69.8,88,29.97,10.0,East,11.5,-,0.00,Rain,Light Rain,80,2013-03-25 00:37:00
2:53 PM,72.0,69.1,91,29.97,10.0,ENE,5.8,-,0.00,Rain,Light Rain,70,2013-03-25 00:53:00
3:53 PM,72.0,68.0,87,29.95,10.0,North,6.9,-,0.02,Rain,Rain,10,2013-03-25 01:53:00
4:00 PM,71.6,68.0,88,29.94,10.0,NNE,8.1,-,0.01,Rain,Light Rain,30,2013-03-25 02:00:00
4:53 PM,73.0,68.0,84,29.93,10.0,NE,5.8,-,0.02,Rain,Light Rain,40,2013-03-25 02:53:00
5:53 PM,73.0,68.0,84,29.94,10.0,NNE,3.5,-,0.00,,Mostly Cloudy,20,2013-03-25 03:53:00
6:53 PM,72.0,68.0,87,29.98,10.0,East,3.5,-,0.00,,Mostly Cloudy,100,2013-03-25 04:53:00
7:53 PM,72.0,66.9,84,30.00,10.0,ENE,9.2,-,N/A,,Overcast,60,2013-03-25 05:53:00
8:53 PM,72.0,66.9,84,30.03,10.0,NW,5.8,-,N/A,,Mostly Cloudy,320,2013-03-25 06:53:00
9:53 PM,70.0,66.0,87,30.03,10.0,NE,5.8,-,N/A,,Scattered Clouds,40,2013-03-25 07:53:00
10:53 PM,70.0,64.9,84,30.03,10.0,North,4.6,-,N/A,,Partly Cloudy,10,2013-03-25 08:53:00
11:53 PM,68.0,66.0,93,30.02,10.0,NNW,3.5,-,N/A,,Partly Cloudy,330,2013-03-25 09:53:00